カタログに戻る

ATLAS AGENA R/B

運用中MEO
NORAD 27785·ROCKET BODY·🇺🇸 United States

打ち上げ Aug 6, 1968 から Cape Canaveral Space Force Station

Loading…

次のパス (今後24時間)

TLE

最新Source: Space-Track

元期: Sep 14, 2026, 13:13 UTC

1 27785U 68063B   26257.55082298 -.00000226  00000-0  00000-0 0  9994
2 27785   4.1671 263.1810 1014496 271.5700  76.4765  1.01777574 27292

AllMySatでATLAS AGENA R/Bをリアルタイム追跡

Download on the App Store